星链-35912(STARLINK-35912)

导读

STARLINK-35912是美国SpaceX星链项目的卫星,于2025年12月4日发射升空。星链计划旨在构建全球卫星互联网星座,该卫星将为全球偏远地区等提供高速低延迟的宽带网络服务,进一步扩展星链星座的全球覆盖能力,推动卫星互联网的普及应用。

基本信息
目录编号:
66882
目录名称:
STARLINK-35912
国际标识:
2025-283E
轨道中心:
EARTH
卫星名称:
星链-35912
卫星全名:
星链-35912(STARLINK-35912)
卫星状态:
在轨 (已飞行191 天)
发射日期:
2025-12-04 UTC
国别 :
美国 (US)
星等 :
--
轨道信息
数据来源 国际轨道数据
星历时间: 2026-06-12T10:41:55+0800
1天前
查看轨道信息
半长轴: 6840.835km
偏心率: 0.0001158
轨道倾角: 53.161°
近地点辐角 68.279°
升交点赤经 304.673°
平近点角 291.834°
近地点: 461.905km
远地点: 463.491km
周期: 93.848分钟
每日圈数: 15.344019
详细信息
固有亮度:
5
最大亮度:
2.5
卫星平台:
Starlink V1.0
覆盖范围:
全球
运营商:
太空探索技术公司
运营商所在国:
美国
制造商(研发单位):
太空探索技术公司
制造商所在国:
美国
使用方式:
暂无
卫星简介
Starlink 计划是 SpaceX 推出的全球卫星互联网项目,通过发射低轨道卫星,为全球尤其是偏远地区提供高速、低延迟的互联网服务。自 2019 年起,Starlink 已部署数千颗卫星,旨在缩小全球数字鸿沟,推动互联网普及。该项目还为军事、航空等行业提供通信支持,带来广泛经济效益。
2D轨道图
3D轨道图
轨道高度分析图
轨道倾角分析图
轨道综合分析图
查看轨道综合分析图